CAS-7B

Last updated on Aug. 6, 2019, 12:02 a.m. UTC

1 44443U 19043A   19217.68179789  .10560506  89749-5  36947-2 0  9997
2 44443  42.7194 295.4156 0012393   4.8471 131.9425 16.24009227  1843

Satellite is not in orbit.